Location: Napier
(39.4830°S, 176.9170°E)
Time: 15:18:20
(UTC+13:00)

Cosmos 1980 Rocket - Pass Details

Date: 24 January 2019
Orbit: 828 x 851 km, 71.0° (Epoch: 16 February)

Event Time Altitude Azimuth Distance (km) Brightness Sun altitude
Rises 21:02:22 0° 331° (NNW) 3,408 5.3 -5.3°
Reaches altitude 10° 21:04:49 10° 329° (NNW) 2,479 4.7 -5.7°
Maximum altitude 21:10:30 68° 246° (WSW) 923 2.7 -6.7°
Drops below altitude 10° 21:16:14 10° 162° (SSE) 2,498 4.9 -7.6°
Sets 21:18:43 0° 159° (SSE) 3,437 5.5 -8.0°
